Laramie, WY

8:00 PM MST on November 20, 2017 (GMT -0700)
Laramie Regional

Weather History for KLAR - January, 2011

Change the Weather History Date:

Saturday, January 15, 2011

  Actual Average Record
Temperature  
Mean Temperature 30 °F 22 °F  
Max Temperature 36 °F 34 °F 51 °F (2000)
Min Temperature 24 °F 10 °F -27 °F (2007)
Degree Days  
Heating Degree Days 35 43  
Month to date heating degree days 731 646  
Since 1 July heating degree days 4033 4319  
Cooling Degree Days 0 0  
Month to date cooling degree days 0 0  
Year to date cooling degree days 0 0  
Moisture  
Dew Point 22 °F    
Average Humidity 68    
Maximum Humidity 75    
Minimum Humidity 61    
Precipitation  
Precipitation 0.00 in 0.00 in 0.20 in (1981)
Month to date precipitation 0.02 0.12  
Year to date precipitation 0.02 0.12  
Sea Level Pressure  
Sea Level Pressure 30.17 in    
Wind  
Wind Speed 16 mph (WSW)    
Max Wind Speed 33 mph    
Max Gust Speed 40 mph    
Visibility 10 miles    
Events      
T = Trace of Precipitation, MM = Missing Value Source: NWS Daily Summary

Daily Weather History Graph

Daily Weather History Graph

Search for Another Location

Airport or City:

Trip Planner

Search our weather history database for the weather conditions in past years. The results will help you decide how hot, cold, wet, or windy it might be!

Date:

Astronomy

Jan. 15, 2011 Rise Set
Actual Time 7:26 AM MST 4:58 PM MST
Civil Twilight 6:55 AM MST 5:28 PM MST
Nautical Twilight 6:21 AM MST 6:02 PM MST
Astronomical Twilight 5:48 AM MST 6:35 PM MST
Moon 12:58 PM MST (1/15) 3:32 AM MST (1/15)
Length of Visible Light 10h 32m
Length of Day
9h 31m
Waxing Gibbous, 81% of the Moon is Illuminated
Jan 15
Waxing Gibbous
Jan 19
Full
Jan 26
Last Quarter
Feb 2
New
Feb 11
First Quarter

Hourly Weather History & Observations

Time (MST) Temp. Windchill Dew Point Humidity Pressure Visibility Wind Dir Wind Speed Gust Speed Precip Events Conditions
12:53 AM 26.1 °F 13.1 °F 19.0 °F 75% 30.25 in 10.0 mi West 17.3 mph - N/A   Clear
1:53 AM 28.4 °F 18.0 °F 19.4 °F 69% 30.20 in 10.0 mi WSW 12.7 mph 27.6 mph N/A   Clear
2:53 AM 28.9 °F 17.7 °F 19.9 °F 69% 30.21 in 10.0 mi WSW 15.0 mph - N/A   Clear
3:53 AM 25.0 °F 14.8 °F 17.1 °F 72% 30.26 in 10.0 mi West 10.4 mph - N/A   Clear
4:53 AM 26.6 °F 13.4 °F 19.4 °F 74% 30.23 in 10.0 mi West 18.4 mph - N/A   Clear
5:53 AM 26.1 °F 14.5 °F 19.0 °F 75% 30.29 in 10.0 mi WSW 13.8 mph - N/A   Clear
6:53 AM 28.0 °F 16.1 °F 19.9 °F 72% 30.26 in 10.0 mi SW 16.1 mph 21.9 mph N/A   Clear
7:53 AM 28.0 °F 13.6 °F 19.9 °F 72% 30.25 in 10.0 mi West 24.2 mph - N/A   Clear
8:53 AM 32.0 °F 23.0 °F 21.9 °F 66% 30.25 in 10.0 mi SW 11.5 mph 23.0 mph N/A   Clear
9:53 AM 33.1 °F 22.2 °F 24.1 °F 70% 30.25 in 10.0 mi West 17.3 mph 24.2 mph N/A   Clear
10:53 AM 33.1 °F 19.8 °F 24.1 °F 70% 30.21 in 10.0 mi West 26.5 mph - N/A   Clear
11:53 AM 32.0 °F 20.1 °F 24.1 °F 73% 30.17 in 10.0 mi WSW 19.6 mph - N/A   Mostly Cloudy
12:53 PM 34.0 °F 23.8 °F 25.0 °F 70% 30.12 in 10.0 mi SW 16.1 mph - N/A   Clear
1:53 PM 34.0 °F 23.4 °F 24.1 °F 67% 30.06 in 10.0 mi WSW 17.3 mph - N/A   Clear
2:53 PM 34.0 °F 26.6 °F 23.0 °F 64% 30.08 in 10.0 mi West 9.2 mph - N/A   Scattered Clouds
3:53 PM 32.0 °F 21.2 °F 23.0 °F 69% 30.13 in 10.0 mi West 16.1 mph - N/A   Mostly Cloudy
4:53 PM 33.1 °F 21.9 °F 21.9 °F 64% 30.13 in 10.0 mi WSW 18.4 mph - N/A   Clear
5:53 PM 30.0 °F 19.5 °F 21.9 °F 72% 30.13 in 10.0 mi WSW 13.8 mph - N/A   Clear
6:53 PM 32.0 °F 27.5 °F 21.0 °F 64% 30.12 in 10.0 mi South 4.6 mph - N/A   Clear
7:53 PM 33.1 °F 22.2 °F 21.9 °F 64% 30.10 in 10.0 mi West 17.3 mph 38.0 mph N/A   Mostly Cloudy
8:53 PM 30.0 °F 18.7 °F 23.0 °F 75% 30.10 in 10.0 mi SW 16.1 mph - N/A   Overcast
9:53 PM 30.0 °F 19.5 °F 23.0 °F 75% 30.08 in 10.0 mi SW 13.8 mph - N/A   Overcast
10:53 PM 28.9 °F 17.7 °F 21.9 °F 75% 30.07 in 10.0 mi WSW 15.0 mph - N/A   Overcast
11:53 PM 30.0 °F 18.7 °F 23.0 °F 75% 30.06 in 10.0 mi SW 16.1 mph - N/A   Overcast